DLH445 KATL-EDDF

Flight info

Callsign DLH445
Flight time N/A
Altitude 37000
Route JACCC2 KELLN Q58 GLOVR DCT RDU DCT ORF AR9 ZIBUT DCT LARGE DCT JENYY DCT DOVEY/M084F390 DCT 42N060W 44N050W 46N040W 48N030W 50N020W DCT SOMAX DCT ATSUR/M084F410 DCT ARKIL/N0483F410 DCT OXLOW DCT KONAN DCT KOK DCT REMBA DCT SPI T180 NIVNU T847 IMCOM IMCOM1A
Aircraft B789/H-SADFGHIJ1J2J3J4J5LOP1P2RWXYZ/LB1D1

Departure

Time 2026-05-05 08:16
Airport Hartsfield Jackson Atlanta International Airport (KATL)

Arrival

Time N/A
Airport Frankfurt Main Airport (EDDF)
Time Latitude Longitude Altitude Speed Heading
2026-05-05 08:13 33.63567 -84.40771 1012 ft 0 kts 130°
2026-05-05 08:14 33.63562 -84.40764 1012 ft 3 kts 135°
2026-05-05 08:14 33.63538 -84.40751 1012 ft 5 kts 165°
2026-05-05 08:15 33.63489 -84.40757 1012 ft 8 kts 216°
2026-05-05 08:15 33.63474 -84.40803 1012 ft 5 kts 260°
2026-05-05 08:15 33.63471 -84.40847 1012 ft 5 kts 269°
2026-05-05 08:15 33.63471 -84.40908 1012 ft 17 kts 269°
2026-05-05 08:16 33.63471 -84.41361 1012 ft 92 kts 270°
2026-05-05 08:16 33.63474 -84.42425 1014 ft 161 kts 270°
2026-05-05 08:16 33.63490 -84.43953 1415 ft 190 kts 275°
2026-05-05 08:16 33.63504 -84.45552 2379 ft 192 kts 263°
2026-05-05 08:17 33.63449 -84.47171 3192 ft 201 kts 262°
2026-05-05 08:17 33.62880 -84.48765 3591 ft 219 kts 232°
2026-05-05 08:17 33.62010 -84.50374 4187 ft 243 kts 243°
2026-05-05 08:17 33.61295 -84.52274 5074 ft 251 kts 245°
2026-05-05 08:18 33.60563 -84.54195 6056 ft 257 kts 244°
2026-05-05 08:18 33.59751 -84.56128 6964 ft 262 kts 238°
2026-05-05 08:18 33.58451 -84.57657 7851 ft 267 kts 213°
2026-05-05 08:18 33.56704 -84.58417 8751 ft 273 kts 188°
2026-05-05 08:19 33.54777 -84.58507 9593 ft 281 kts 182°
2026-05-05 08:19 33.52813 -84.58477 10487 ft 285 kts 180°
2026-05-05 08:19 33.50820 -84.58444 11346 ft 288 kts 181°
2026-05-05 08:19 33.48840 -84.58039 12154 ft 295 kts 158°
2026-05-05 08:20 33.47109 -84.56680 12950 ft 304 kts 134°
2026-05-05 08:20 33.45931 -84.54491 13356 ft 330 kts 109°
2026-05-05 08:20 33.45600 -84.51675 13579 ft 356 kts 93°
2026-05-05 08:20 33.45611 -84.48615 13976 ft 373 kts 89°
2026-05-05 08:21 33.45682 -84.45503 14747 ft 377 kts 90°
2026-05-05 08:21 33.45662 -84.42341 15423 ft 383 kts 92°
2026-05-05 08:21 33.45605 -84.39133 16118 ft 388 kts 91°
2026-05-05 08:21 33.45591 -84.35879 16840 ft 393 kts 88°
2026-05-05 08:22 33.46101 -84.32657 17518 ft 397 kts 68°
2026-05-05 08:22 33.47293 -84.29712 18145 ft 402 kts 60°
2026-05-05 08:22 33.48634 -84.26766 18817 ft 404 kts 59°
2026-05-05 08:22 33.49996 -84.23804 19402 ft 408 kts 60°
2026-05-05 08:23 33.51341 -84.20783 19966 ft 413 kts 60°
2026-05-05 08:23 33.52688 -84.17728 20547 ft 417 kts 59°
2026-05-05 08:23 33.54062 -84.14648 21112 ft 421 kts 59°
2026-05-05 08:23 33.55454 -84.11547 21680 ft 424 kts 59°
2026-05-05 08:24 33.56849 -84.08419 22240 ft 428 kts 59°
2026-05-05 08:24 33.58252 -84.05258 22768 ft 431 kts 59°
2026-05-05 08:24 33.59669 -84.02068 23295 ft 435 kts 58°
2026-05-05 08:24 33.61102 -83.98848 23771 ft 439 kts 58°
2026-05-05 08:25 33.62543 -83.95604 24176 ft 442 kts 58°
2026-05-05 08:25 33.63993 -83.92332 24590 ft 446 kts 58°
2026-05-05 08:25 33.65454 -83.89035 25020 ft 449 kts 58°
2026-05-05 08:25 33.66924 -83.85716 25418 ft 452 kts 58°
2026-05-05 08:26 33.68401 -83.82376 25802 ft 455 kts 58°
2026-05-05 08:26 33.69890 -83.79005 26180 ft 458 kts 57°
2026-05-05 08:26 33.71386 -83.75616 26559 ft 461 kts 57°
2026-05-05 08:26 33.72892 -83.72200 26931 ft 464 kts 57°
2026-05-05 08:27 33.74409 -83.68758 27290 ft 467 kts 57°
2026-05-05 08:27 33.75937 -83.65300 27647 ft 469 kts 55°
2026-05-05 08:27 33.77673 -83.61994 27938 ft 470 kts 52°
2026-05-05 08:27 33.79453 -83.58691 28350 ft 471 kts 52°
2026-05-05 08:28 33.81226 -83.55378 28760 ft 472 kts 52°
2026-05-05 08:28 33.83007 -83.52048 29111 ft 474 kts 52°
2026-05-05 08:28 33.84794 -83.48708 29512 ft 475 kts 52°
2026-05-05 08:28 33.86589 -83.45354 29811 ft 478 kts 52°
2026-05-05 08:29 33.88366 -83.42026 30131 ft 480 kts 52°
2026-05-05 08:29 33.90176 -83.38635 30390 ft 483 kts 52°
2026-05-05 08:29 33.91992 -83.35228 30628 ft 485 kts 52°
2026-05-05 08:30 33.95652 -83.28353 31134 ft 490 kts 51°
2026-05-05 08:30 33.97495 -83.24887 31362 ft 492 kts 51°
2026-05-05 08:30 33.99341 -83.21410 31603 ft 494 kts 51°
2026-05-05 08:30 34.01198 -83.17909 31829 ft 497 kts 51°
2026-05-05 08:31 34.03062 -83.14397 32109 ft 498 kts 51°
2026-05-05 08:31 34.04929 -83.10870 32371 ft 499 kts 51°
2026-05-05 08:31 34.06800 -83.07330 32581 ft 502 kts 51°
2026-05-05 08:31 34.08679 -83.03773 32778 ft 504 kts 51°
2026-05-05 08:32 34.10568 -83.00198 33005 ft 506 kts 51°
2026-05-05 08:32 34.12461 -82.96610 33193 ft 508 kts 51°
2026-05-05 08:32 34.14358 -82.92999 33383 ft 510 kts 51°
2026-05-05 08:32 34.16254 -82.89360 33573 ft 512 kts 51°
2026-05-05 08:33 34.18155 -82.85708 33749 ft 514 kts 51°
2026-05-05 08:33 34.20067 -82.82050 33912 ft 516 kts 51°
2026-05-05 08:33 34.21987 -82.78373 34096 ft 518 kts 51°
2026-05-05 08:33 34.23903 -82.74688 34317 ft 518 kts 51°
2026-05-05 08:34 34.25819 -82.70997 34499 ft 519 kts 51°
2026-05-05 08:34 34.27732 -82.67315 34844 ft 516 kts 51°
2026-05-05 08:34 34.29637 -82.63646 35099 ft 515 kts 51°
2026-05-05 08:34 34.31538 -82.59983 35310 ft 514 kts 51°
2026-05-05 08:35 34.33436 -82.56317 35523 ft 514 kts 51°
2026-05-05 08:35 34.35330 -82.52655 35747 ft 514 kts 51°
2026-05-05 08:35 34.37226 -82.48986 35932 ft 514 kts 51°
2026-05-05 08:35 34.39117 -82.45326 36134 ft 513 kts 51°
2026-05-05 08:36 34.40983 -82.41708 36347 ft 513 kts 51°
2026-05-05 08:36 34.42869 -82.38046 36596 ft 512 kts 51°
2026-05-05 08:36 34.44734 -82.34377 36878 ft 512 kts 54°
2026-05-05 08:36 34.46449 -82.30590 37028 ft 513 kts 54°
2026-05-05 08:37 34.48185 -82.26801 37066 ft 515 kts 53°
2026-05-05 08:37 34.51651 -82.19209 37062 ft 512 kts 54°
2026-05-05 08:38 34.55334 -82.11925 37072 ft 506 kts 51°
2026-05-05 08:38 34.59098 -82.04683 37069 ft 508 kts 51°
2026-05-05 08:39 34.62883 -81.97447 37074 ft 508 kts 51°
2026-05-05 08:39 34.66019 -81.91415 37068 ft 508 kts 51°
2026-05-05 08:40 34.69793 -81.84153 37055 ft 508 kts 51°
2026-05-05 08:40 34.73563 -81.76884 37063 ft 508 kts 51°
2026-05-05 08:41 34.77317 -81.69624 37057 ft 506 kts 51°
2026-05-05 08:41 34.81067 -81.62372 37058 ft 507 kts 52°
2026-05-05 08:42 34.84820 -81.55083 37058 ft 509 kts 52°
2026-05-05 08:42 34.88581 -81.47771 37063 ft 510 kts 52°
2026-05-05 08:43 34.92341 -81.40445 37074 ft 510 kts 52°
2026-05-05 08:43 34.96094 -81.33117 37055 ft 510 kts 52°
2026-05-05 08:44 34.99839 -81.25787 37050 ft 508 kts 53°
2026-05-05 08:44 35.03566 -81.18481 37045 ft 507 kts 53°
2026-05-05 08:45 35.07291 -81.11164 37045 ft 508 kts 53°
2026-05-05 08:45 35.11019 -81.03822 37047 ft 509 kts 53°
2026-05-05 08:46 35.14742 -80.96475 37064 ft 509 kts 53°
2026-05-05 08:46 35.18439 -80.89168 37075 ft 509 kts 53°
2026-05-05 08:47 35.22154 -80.81804 37074 ft 509 kts 53°
2026-05-05 08:47 35.25867 -80.74432 37090 ft 509 kts 53°
2026-05-05 08:48 35.29575 -80.67054 37091 ft 509 kts 54°
2026-05-05 08:48 35.33275 -80.59675 37067 ft 509 kts 54°
2026-05-05 08:49 35.36975 -80.52283 37070 ft 509 kts 54°
2026-05-05 08:49 35.40674 -80.44875 37080 ft 509 kts 54°
2026-05-05 08:50 35.44364 -80.37469 37093 ft 508 kts 54°
2026-05-05 08:50 35.48041 -80.30074 37102 ft 507 kts 54°
2026-05-05 08:51 35.51290 -80.22384 37128 ft 514 kts 70°
2026-05-05 08:51 35.53450 -80.13968 37116 ft 518 kts 70°
2026-05-05 08:52 35.55601 -80.05523 37109 ft 518 kts 69°